Weather History for KARR - November, 2013

Change the Weather History Date:

Sunday, November 10, 2013

  Actual Average Record
Temperature  
Mean Temperature 40 °F 41 °F  
Max Temperature 49 °F 51 °F 71 °F (2010)
Min Temperature 31 °F 31 °F 19 °F (2007)
Degree Days  
Heating Degree Days 25 24  
Month to date heating degree days 225 220  
Since 1 July heating degree days 798 827  
Cooling Degree Days 0 0  
Month to date cooling degree days 0 0  
Year to date cooling degree days 745 655  
Moisture  
Dew Point 29 °F    
Average Humidity 62    
Maximum Humidity 78    
Minimum Humidity 46    
Precipitation  
Precipitation 0.00 in 0.11 in 1.23 in (1998)
Month to date precipitation 0.88 1.18  
Year to date precipitation 31.41 32.94  
Sea Level Pressure  
Sea Level Pressure 30.29 in    
Wind  
Wind Speed 9 mph (West)    
Max Wind Speed 21 mph    
Max Gust Speed 26 mph    
Visibility 10 miles    
Events      
T = Trace of Precipitation, MM = Missing Value Source: NWS Daily Summary

Daily Weather History Graph

Daily Weather History Graph

Search for Another Location

Airport or City:

Trip Planner

Search our weather history database for the weather conditions in past years. The results will help you decide how hot, cold, wet, or windy it might be!

Date:

Astronomy

Nov. 10, 2013 Rise Set
Actual Time 6:37 AM CST 4:37 PM CST
Civil Twilight 6:07 AM CST 5:07 PM CST
Nautical Twilight 5:34 AM CST 5:40 PM CST
Astronomical Twilight 5:01 AM CST 6:13 PM CST
Moon 12:48 PM CST (11/10) No Moon Set
Length of Visible Light 10h 59m
Length of Day
10h 00m
First Quarter, 56% of the Moon is Illuminated
Nov 10
First Quarter
Nov 17
Full
Nov 25
Last Quarter
Dec 2
New
Dec 9
First Quarter

Hourly Weather History & Observations

Time (CST) Temp. Windchill Dew Point Humidity Pressure Visibility Wind Dir Wind Speed Gust Speed Precip Events Conditions
12:52 AM 37.9 °F 29.2 °F 27.0 °F 65% 30.17 in 10.0 mi WNW 15.0 mph - N/A   Clear
1:52 AM 36.0 °F 28.5 °F 28.0 °F 73% 30.18 in 10.0 mi West 10.4 mph - N/A   Clear
2:52 AM 35.1 °F 27.4 °F 28.0 °F 76% 30.20 in 10.0 mi West 10.4 mph - N/A   Clear
3:52 AM 33.1 °F 24.9 °F 27.0 °F 78% 30.22 in 10.0 mi West 10.4 mph - N/A   Clear
4:52 AM 32.0 °F 24.2 °F 27.0 °F 82% 30.26 in 10.0 mi West 9.2 mph - N/A   Clear
5:52 AM 32.0 °F 23.0 °F 27.0 °F 82% 30.28 in 10.0 mi WNW 11.5 mph - N/A   Clear
6:52 AM 32.0 °F 23.6 °F 27.0 °F 82% 30.30 in 10.0 mi West 10.4 mph - N/A   Clear
7:52 AM 35.1 °F 26.9 °F 28.0 °F 76% 30.33 in 10.0 mi West 11.5 mph - N/A   Clear
8:52 AM 39.9 °F 31.4 °F 30.0 °F 68% 30.35 in 10.0 mi West 16.1 mph 21.9 mph N/A   Clear
9:52 AM 43.0 °F 35.4 °F 30.0 °F 60% 30.36 in 10.0 mi WNW 16.1 mph 20.7 mph N/A   Clear
10:52 AM 45.0 °F 38.5 °F 28.9 °F 53% 30.37 in 10.0 mi WNW 13.8 mph 19.6 mph N/A   Clear
11:52 AM 46.0 °F 41.0 °F 30.0 °F 54% 30.35 in 10.0 mi West 10.4 mph 16.1 mph N/A   Clear
12:52 PM 46.9 °F - 28.9 °F 50% 30.34 in 10.0 mi WNW 5.8 mph - N/A   Clear
1:52 PM 48.0 °F - 28.9 °F 48% 30.33 in 10.0 mi WNW 9.2 mph - N/A   Clear
2:52 PM 48.0 °F - 30.0 °F 50% 30.32 in 10.0 mi West 5.8 mph - N/A   Clear
3:52 PM 46.0 °F 41.9 °F 28.9 °F 51% 30.33 in 10.0 mi WSW 8.1 mph - N/A   Clear
4:52 PM 42.1 °F 38.4 °F 30.0 °F 62% 30.32 in 10.0 mi SW 5.8 mph - N/A   Clear
5:52 PM 41.0 °F 38.0 °F 30.9 °F 67% 30.31 in 10.0 mi SSW 4.6 mph - N/A   Mostly Cloudy
6:52 PM 43.0 °F 39.5 °F 30.9 °F 62% 30.31 in 6.0 mi SW 5.8 mph - N/A   Haze
7:52 PM 42.1 °F 39.2 °F 32.0 °F 67% 30.30 in 8.0 mi SSW 4.6 mph - N/A   Overcast
8:52 PM 42.1 °F 37.7 °F 32.0 °F 67% 30.27 in 10.0 mi South 6.9 mph - N/A   Overcast
9:52 PM 42.1 °F 38.4 °F 32.0 °F 67% 30.26 in 10.0 mi SSW 5.8 mph - N/A   Overcast
10:52 PM 43.0 °F 38.2 °F 32.0 °F 65% 30.25 in 10.0 mi SSW 8.1 mph - N/A   Overcast
11:52 PM 42.1 °F 37.7 °F 33.1 °F 70% 30.22 in 10.0 mi SSW 6.9 mph - N/A   Overcast